Tracking 34408 objects as of 14-Jun-2026
HD Live streaming from Space Station
objects crossing your sky now

THORAD AGENA D DEB

Track THORAD AGENA D DEB now!
10-day predictions


NORAD ID: 5025
Int'l Code: 1970-025HZ
Perigee: 1,043.8 km
Apogee: 1,108.9 km
Inclination: 100.1 °
Period: 106.6 minutes
Semi major axis: 7447 km
RCS: 0.0104 m2 (small)
Launch date: April 8, 1970
Source: United States (US)
Launch site: AIR FORCE WESTERN TEST RANGE (AFWTR)

Note: This is SATELLITE DEBRIS
Your satellite tracking list
Your tracking list is empty




NASA's NSSDC Master Catalog

Two Line Element Set (TLE):
1  5025U 70025HZ  26165.17316366  .00000147  00000-0  29874-3 0  9994
2  5025 100.0677 232.8698 0043723  23.4983  32.3130 13.50833893758994
Source of the keplerian elements: AFSPC